User: anonymous   Login
Location: Unspecified
(0.0000°N, 0.0000°E)
Time: 10:55:59
(UTC+02:00)
Language:

Cosmos 1782 Rocket - Orbit

View from above orbital plane
View from above orbital plane
View from above satellite
View from above satellite

Ground track
Ground track

The orbit data is extracted from the following two-line orbital elements,

1 16987U 86074B   18111.88718047 +.00000102 +00000-0 +96143-5 0  9992
2 16987 082.5195 021.3104 0017393 328.0377 075.6681 14.83003869683111
Epoch (UTC): 21 April 2018 21:17:32
Eccentricity: 0.0017393
inclination: 82.5195°
perigee height: 607 km
apogee height: 632 km
right ascension of ascending node: 21.3104°
argument of perigee: 328.0377°
revolutions per day: 14.83003869
mean anomaly at epoch: 75.6681°
orbit number at epoch: 68311

The dashed part of the orbit path shows where the satellite is in the earth's shadow,  

DLR